Akron, CO

7:42 AM MST on November 17, 2019 (GMT -0700)
Akron-Washington County

Weather History for KAKO - August, 2019

Change the Weather History Date:

Monday, August 19, 2019

  Actual Average Record
Temperature  
Mean Temperature 80 °F 72 °F  
Max Temperature 97 °F 86 °F 100 °F (1952)
Min Temperature 63 °F 58 °F 45 °F (1956)
Degree Days  
Heating Degree Days 0    
Month to date heating degree days 0  
Cooling Degree Days 15    
Month to date cooling degree days 193  
Growing Degree Days 31 (Base 50)    
Moisture  
Dew Point 56 °F    
Average Humidity 47    
Maximum Humidity 81    
Minimum Humidity 13    
Precipitation  
Precipitation 0.00 in 0.07 in 0.85 in (1953)
Month to date precipitation 2.77 1.58  
Year to date precipitation 13.86 12.77  
Snow  
Snow 0.00 in - - ()
Snow Depth 0.00 in    
Sea Level Pressure  
Sea Level Pressure 29.84 in    
Wind  
Wind Speed 11 mph (South)    
Max Wind Speed 21 mph    
Max Gust Speed 30 mph    
Visibility 10 miles    
Events      
T = Trace of Precipitation, MM = Missing Value Source: NWS Daily Summary

Daily Weather History Graph

Daily Weather History Graph

Search for Another Location

Airport or City:

Astronomy

Aug. 19, 2019 Rise Set
Actual Time 6:07 AM MDT 7:44 PM MDT
Civil Twilight 5:39 AM MDT 8:13 PM MDT
Nautical Twilight 5:04 AM MDT 8:47 PM MDT
Astronomical Twilight 4:27 AM MDT 9:24 PM MDT
Moon 10:06 PM MDT (8/19) 9:51 AM MDT (8/19)
Length of Visible Light 14h 34m
Length of Day
13h 36m
Waning Gibbous, 85% of the Moon is Illuminated
Aug 19
Waning Gibbous
Aug 23
Last Quarter
Aug 30
New
Sep 5
First Quarter
Sep 13
Full

Hourly Weather History & Observations

Time (MDT) Temp. Heat Index Dew Point Humidity Pressure Visibility Wind Dir Wind Speed Gust Speed Precip Events Conditions
12:53 AM 73.9 °F - 61.0 °F 64% 29.84 in 10.0 mi South 17.3 mph 27.6 mph N/A   Clear
1:53 AM 71.1 °F - 61.0 °F 70% 29.84 in 10.0 mi South 17.3 mph - N/A   Clear
2:53 AM 69.1 °F - 62.1 °F 78% 29.83 in 10.0 mi South 11.5 mph - N/A   Clear
3:53 AM 66.9 °F - 61.0 °F 81% 29.82 in 10.0 mi South 11.5 mph - N/A   Clear
4:53 AM 66.0 °F - 60.1 °F 81% 29.82 in 10.0 mi SSW 8.1 mph - N/A   Clear
5:53 AM 66.9 °F - 60.1 °F 79% 29.84 in 10.0 mi SW 11.5 mph - N/A   Clear
6:53 AM 66.0 °F - 60.1 °F 81% 29.85 in 10.0 mi SW 9.2 mph - N/A   Clear
7:53 AM 68.0 °F - 60.1 °F 76% 29.88 in 10.0 mi SW 6.9 mph - N/A   Clear
8:53 AM 73.0 °F - 59.0 °F 61% 29.86 in 10.0 mi West 5.8 mph - N/A   Clear
9:53 AM 79.0 °F - 57.9 °F 48% 29.86 in 10.0 mi WNW 4.6 mph - N/A   Clear
10:53 AM 82.9 °F 82.6 °F 57.9 °F 42% 29.86 in 10.0 mi West 8.1 mph - N/A   Clear
11:53 AM 86.0 °F 84.9 °F 57.0 °F 37% 29.86 in 10.0 mi Calm Calm - N/A   Clear
12:53 PM 90.0 °F 88.6 °F 57.0 °F 33% 29.84 in 10.0 mi North 6.9 mph - N/A   Clear
1:53 PM 93.0 °F - 52.0 °F 25% 29.83 in 10.0 mi North 8.1 mph - N/A   Clear
2:53 PM 96.1 °F - 41.0 °F 15% 29.81 in 10.0 mi NNW 6.9 mph - N/A   Clear
3:53 PM 96.1 °F - 39.0 °F 14% 29.81 in 10.0 mi North 3.5 mph - N/A   Clear
4:53 PM 96.1 °F - 37.0 °F 13% 29.81 in 10.0 mi Calm Calm - N/A   Clear
5:53 PM 91.9 °F - 51.1 °F 25% 29.80 in 10.0 mi East 11.5 mph 20.7 mph N/A   Clear
6:53 PM 88.0 °F 86.5 °F 55.9 °F 34% 29.83 in 10.0 mi ENE 19.6 mph - N/A   Clear
7:53 PM 80.1 °F 80.7 °F 59.0 °F 48% 29.85 in 10.0 mi East 10.4 mph - N/A   Clear
8:53 PM 73.0 °F - 55.9 °F 55% 29.88 in 10.0 mi East 6.9 mph - N/A   Clear
9:53 PM 69.1 °F - 55.0 °F 61% 29.88 in 10.0 mi East 9.2 mph - N/A   Clear
10:53 PM 71.1 °F - 55.9 °F 59% 29.86 in 10.0 mi ESE 9.2 mph - N/A   Clear
11:53 PM 68.0 °F - 61.0 °F 78% 29.87 in 10.0 mi SE 9.2 mph - N/A   Clear